Location: Colonie
(42.7179°N, 73.8335°W)
Time: 06:04:11
(UTC+00:00)

YAOGAN 1 - Pass Details

Date: 29 October 2020
Orbit: 618 x 620 km, 97.9° (Epoch: 27 November)

Event Time Altitude Azimuth Distance (km) Brightness Sun altitude
Rises 23:41:22 0° 170° (S) 2,883 5.9 -20.7°
Reaches altitude 10° 23:43:32 10° 172° (S) 1,981 5.1 -21.1°
Maximum altitude 23:47:51 76° 258° (WSW) 645 2.7 -21.9°
Drops below altitude 10° 23:52:12 10° 344° (NNW) 1,996 5.4 -22.7°
Sets 23:54:24 0° 346° (NNW) 2,907 6.2 -23.1°
